Weather History for Alykel, Russia

Change the Weather History Date:

Friday, October 5, 2012

  Actual Average Record
Temperature  
Mean Temperature 26 °F -  
Max Temperature 30 °F - - ()
Min Temperature 21 °F - - ()
Degree Days  
Heating Degree Days 40    
Moisture  
Dew Point 14 °F    
Average Humidity 62    
Maximum Humidity 69    
Minimum Humidity 55    
Precipitation  
Precipitation 0.00 in - - ()
Sea Level Pressure  
Sea Level Pressure 30.15 in    
Wind  
Wind Speed 16 mph ()    
Max Wind Speed 25 mph    
Max Gust Speed 31 mph    
T = Trace of Precipitation, MM = Missing Value Source: Averaged Metar Reports

Daily Weather History Graph

Daily Weather History Graph

Search for Another Location

Airport:

Trip Planner

Search our weather history database for the weather conditions in past years. The results will help you decide how hot, cold, wet, or windy it might be!

Date:

Astronomy

Oct. 05, 2012 Rise Set
Actual Time 8:41 AM KRAT 7:15 PM KRAT
Civil Twilight 7:42 AM KRAT 8:13 PM KRAT
Nautical Twilight 6:32 AM KRAT 9:22 PM KRAT
Astronomical Twilight 5:14 AM KRAT 10:39 PM KRAT
Moon 6:03 PM KRAT (10/5) 5:35 PM KRAT (10/5)
Length of Visible Light 12h 31m
Length of Day
10h 34m
Waning Gibbous, 78% of the Moon is Illuminated
Oct 5
Waning Gibbous
Oct 8
Last Quarter
Oct 15
New
Oct 22
First Quarter
Oct 30
Full

Hourly Weather History & Observations

Time (KRAT) Temp. Windchill Dew Point Humidity Pressure Visibility Wind Dir Wind Speed Gust Speed Precip Events Conditions
12:00 AM 24.8 °F 12.1 °F 14.0 °F 64% 30.27 in - ESE 15.7 mph 20.1 mph N/A   Clear
1:00 AM 24.8 °F 12.1 °F 14.0 °F 64% 30.24 in - ESE 15.7 mph - N/A   Clear
2:00 AM 23.0 °F 9.8 °F 14.0 °F 68% 30.24 in - SSE 15.7 mph 20.1 mph N/A   Clear
3:00 AM 23.0 °F 9.8 °F 12.2 °F 63% 30.24 in - SSE 15.7 mph 20.1 mph N/A   Clear
4:00 AM 23.0 °F 8.9 °F 12.2 °F 63% 30.24 in - SSE 17.9 mph 22.4 mph N/A   Clear
4:30 AM 23.0 °F 8.9 °F 12.2 °F 63% 30.24 in - SE 17.9 mph 20.1 mph N/A   Clear
5:00 AM 21.2 °F 7.5 °F 12.2 °F 68% 30.24 in - SE 15.7 mph 17.9 mph N/A   Clear
5:30 AM 23.0 °F 8.1 °F 12.2 °F 63% 30.24 in - SE 20.1 mph 24.6 mph N/A   Clear
6:00 AM 23.0 °F 10.8 °F 12.2 °F 63% 30.24 in - SE 13.4 mph 20.1 mph N/A   Clear
6:30 AM 23.0 °F 9.8 °F 12.2 °F 63% 30.24 in - SE 15.7 mph 20.1 mph N/A   Clear
7:00 AM 23.0 °F 9.8 °F 12.2 °F 63% 30.21 in - SE 15.7 mph 20.1 mph N/A   Clear
7:30 AM 21.2 °F 7.5 °F 12.2 °F 68% 30.21 in - ESE 15.7 mph - N/A   Clear
8:00 AM 21.2 °F 8.5 °F 12.2 °F 68% 30.18 in - SE 13.4 mph 17.9 mph N/A   Clear
8:30 AM 23.0 °F 8.1 °F 12.2 °F 63% 30.18 in - SE 20.1 mph 24.6 mph N/A   Clear
9:00 AM 23.0 °F 8.1 °F 12.2 °F 63% 30.18 in - SE 20.1 mph 24.6 mph N/A   Clear
9:30 AM 23.0 °F 6.8 °F 12.2 °F 63% 30.18 in - SE 24.6 mph 31.3 mph N/A   Clear
10:00 AM 24.8 °F 10.5 °F 12.2 °F 59% 30.18 in - SE 20.1 mph 24.6 mph N/A   Clear
10:30 AM 24.8 °F 11.3 °F 12.2 °F 59% 30.18 in - SE 17.9 mph 24.6 mph N/A   Clear
11:00 AM 24.8 °F 11.3 °F 14.0 °F 64% 30.15 in - SE 17.9 mph 22.4 mph N/A   Clear
11:30 AM 24.8 °F 11.3 °F 14.0 °F 64% 30.15 in - SE 17.9 mph 22.4 mph N/A   Clear
12:00 PM 26.6 °F 13.6 °F 14.0 °F 59% 30.15 in - SE 17.9 mph 22.4 mph N/A   Clear
12:30 PM 26.6 °F 12.2 °F 15.8 °F 64% 30.15 in - SSE 22.4 mph 29.1 mph N/A   Clear
1:00 PM 28.4 °F 14.6 °F 15.8 °F 59% 30.12 in - SE 22.4 mph 26.8 mph N/A   Clear
1:30 PM 28.4 °F 14.0 °F 15.8 °F 59% 30.12 in - SE 24.6 mph 29.1 mph N/A   Clear
2:00 PM 28.4 °F 14.6 °F 17.6 °F 64% 30.12 in - SE 22.4 mph 26.8 mph N/A   Clear
2:30 PM 28.4 °F 15.2 °F 17.6 °F 64% 30.09 in - SSE 20.1 mph 24.6 mph N/A   Clear
3:00 PM 30.2 °F 17.6 °F 17.6 °F 60% 30.09 in - SSE 20.1 mph 22.4 mph N/A   Clear
3:30 PM 30.2 °F 17.0 °F 15.8 °F 55% 30.09 in - SSE 22.4 mph 26.8 mph N/A   Clear
4:00 PM 30.2 °F 17.6 °F 15.8 °F 55% 30.09 in - SSE 20.1 mph 29.1 mph N/A   Clear
4:30 PM 30.2 °F 17.6 °F 15.8 °F 55% 30.09 in - SE 20.1 mph 24.6 mph N/A   Clear
5:00 PM 28.4 °F 16.7 °F 17.6 °F 64% 30.09 in - SSE 15.7 mph 22.4 mph N/A   Clear
6:00 PM 28.4 °F 15.9 °F 15.8 °F 59% 30.06 in - SSE 17.9 mph 22.4 mph N/A   Clear
7:00 PM 28.4 °F 15.9 °F 17.6 °F 64% 30.06 in - SSE 17.9 mph 22.4 mph N/A   Clear
7:20 PM 28.4 °F 16.7 °F 15.8 °F 59% 30.06 in - SSE 15.7 mph 22.4 mph N/A   Clear
8:00 PM 28.4 °F 16.7 °F 15.8 °F 59% 30.06 in - SSE 15.7 mph 22.4 mph N/A   Clear
9:00 PM 28.4 °F 15.9 °F 15.8 °F 59% 30.06 in - South 17.9 mph 22.4 mph N/A   Clear
10:00 PM 26.6 °F 12.9 °F 17.6 °F 69% 30.06 in - South 20.1 mph 24.6 mph N/A   Clear
11:00 PM 26.6 °F 15.3 °F 17.6 °F 69% 30.06 in - SSE 13.4 mph 17.9 mph N/A   Clear